Location: Brede
(50.9167°N, 0.6000°E)
Time: 08:40:52
(UTC+00:00)

Tiros 1 - Pass Details

Date: 05 December 2020
Orbit: 630 x 663 km, 48.4° (Epoch: 16 January)

Event Time Altitude Azimuth Distance (km) Brightness Sun altitude
Rises 17:44:37 0° 279° (W) 2,996 11.8 -16.7°
Reaches altitude 10° 17:47:06 10° 271° (W) 2,079 10.9 -17.1°
Maximum altitude 17:51:29 36° 206° (SSW) 1,035 8.5 -17.7°
Enters shadow 17:55:41 11° 140° (SE) 2,005 9.4 -18.4°
